Location: Saint-Hippolyte
(43.6394°N, 4.7559°E)
Time: 14:47:58
(UTC+00:00)

ERS-2 - Pass Details

Date: 24 October 2020
Orbit: 493 x 498 km, 98.6° (Epoch: 24 November)

Event Time Altitude Azimuth Distance (km) Brightness Sun altitude
Rises 17:23:39 0° 11° (N) 2,585 5.5 -8.1°
Reaches altitude 10° 17:25:45 10° 9° (N) 1,698 4.6 -8.4°
Maximum altitude 17:29:22 67° 287° (WNW) 538 2.5 -9.1°
Drops below altitude 10° 17:32:58 10° 204° (SSW) 1,685 5.2 -9.7°
Sets 17:35:01 0° 201° (SSW) 2,563 6.1 -10.1°
